Date String (YYYY-MM-DD hh:mm:ss) UTC,Instrument flags,Ambient pressure (hPa),Sample flow (lpm),Bypass flow (lpm),Sample temperature (°C),Ambient temperature (°C),ASC tube jacket temperature (°C),LED temperature (°C),Box temperature (°C),Sample RH (%),Span deviation,Mass concentration (μg/m³),Mass concentration (μg/m³),Mass concentration (μg/m³)
DateTimeUTC,F1_M11,P_M11,Q1_M11,Q2_M11,T1_M11,T2_M11,T3_M11,T4_M11,T5_M11,U1_M11,ZSPAN_M11,X2_M11,X0_M11,X1_M11
2022-10-17 18:00:00,,0833.4,5.01,0.00,27.0,26.0,00.0,35.8,29.0,13.7,0000.4,0006.07,0013.70,0005.51
2022-10-17 18:01:00,,0833.4,5.00,0.00,27.1,26.0,00.0,35.8,29.0,13.9,0000.0,0006.08,0013.69,0005.50
2022-10-17 18:02:00,,0833.4,4.99,0.00,27.1,26.0,00.0,35.8,29.0,13.9,0000.0,0006.05,0013.14,0005.48
2022-10-17 18:03:00,,0833.4,5.01,0.00,27.1,26.0,00.0,35.8,29.0,13.9,0000.0,0006.06,0013.26,0005.49
2022-10-17 18:04:00,,0833.4,5.01,0.00,27.1,26.1,00.0,35.8,29.0,13.7,0000.0,0006.08,0012.90,0005.48
2022-10-17 18:05:00,,0833.5,4.99,0.00,27.1,26.1,00.0,35.8,29.0,13.8,0000.0,0006.10,0012.51,0005.48
2022-10-17 18:06:00,,0833.4,4.99,0.00,27.1,26.1,00.0,35.8,29.1,13.6,0000.0,0006.11,0011.27,0005.47
2022-10-17 18:07:00,,0833.4,5.00,0.00,27.2,26.1,00.0,35.9,29.1,13.7,0000.0,0006.13,0011.90,0005.46
2022-10-17 18:08:00,,0833.4,5.00,0.00,27.2,26.1,00.0,35.9,29.1,13.6,0000.0,0006.12,0011.97,0005.45
2022-10-17 18:09:00,,0833.4,5.01,0.00,27.2,26.1,00.0,35.9,29.1,13.5,0000.0,0006.12,0012.77,0005.44
2022-10-17 18:10:00,,0833.4,5.00,0.00,27.2,26.1,00.0,35.9,29.1,13.6,0000.0,0006.13,0012.28,0005.44
2022-10-17 18:11:00,,0833.4,5.00,0.00,27.2,26.2,00.0,35.9,29.1,13.7,0000.0,0006.15,0012.43,0005.44
2022-10-17 18:12:00,,0833.3,5.00,0.00,27.2,26.2,00.0,35.9,29.2,13.5,0000.0,0006.14,0012.99,0005.45
2022-10-17 18:13:00,,0833.3,5.00,0.00,27.3,26.2,00.0,36.0,29.2,13.8,0000.0,0006.16,0013.51,0005.47
2022-10-17 18:14:00,,0833.2,4.99,0.00,27.3,26.2,00.0,36.0,29.2,13.6,0000.0,0006.10,0013.25,0005.47
2022-10-17 18:15:00,,0833.3,5.01,0.00,27.3,26.2,00.0,36.0,29.2,13.5,0000.0,0006.07,0013.00,0005.48
2022-10-17 18:16:00,,0833.2,5.01,0.00,27.3,26.3,00.0,36.0,29.2,13.6,0000.0,0006.06,0012.99,0005.48
2022-10-17 18:17:00,,0833.2,4.98,0.00,27.3,26.3,00.0,36.0,29.3,13.5,0000.0,0006.02,0012.81,0005.48
2022-10-17 18:18:00,,0833.2,5.01,0.00,27.3,26.3,00.0,36.0,29.3,13.5,0000.0,0005.97,0012.02,0005.49
2022-10-17 18:19:00,,0833.3,5.01,0.00,27.4,26.3,00.0,36.1,29.3,13.4,0000.0,0005.97,0012.16,0005.50
2022-10-17 18:20:00,,0833.2,5.00,0.00,27.4,26.3,00.0,36.1,29.3,13.4,0000.0,0005.99,0011.89,0005.51
2022-10-17 18:21:00,,0833.2,4.99,0.00,27.4,26.3,00.0,36.1,29.3,13.5,0000.0,0006.01,0011.84,0005.52
2022-10-17 18:22:00,,0833.2,5.00,0.00,27.4,26.3,00.0,36.1,29.3,13.5,0000.1,0006.01,0011.44,0005.54
2022-10-17 18:23:00,,0833.2,5.00,0.00,27.4,26.3,00.0,36.1,29.3,13.4,0001.5,0006.01,0011.04,0005.55
2022-10-17 18:24:00,,0833.2,5.00,0.00,27.4,26.4,00.0,36.2,29.4,13.4,0000.9,0006.00,0011.85,0005.54
2022-10-17 18:25:00,,0833.1,5.01,0.00,27.5,26.4,00.0,36.2,29.4,13.4,0002.8,0006.02,0012.38,0005.52
2022-10-17 18:26:00,,0833.1,5.00,0.00,27.5,26.4,00.0,36.2,29.4,13.4,0001.7,0006.01,0012.51,0005.50
2022-10-17 18:27:00,,0833.1,4.99,0.00,27.5,26.4,00.0,36.2,29.4,13.4,0001.6,0006.02,0013.21,0005.49
2022-10-17 18:28:00,,0833.1,4.99,0.00,27.5,26.5,00.0,36.2,29.4,13.5,0002.6,0006.03,0013.41,0005.48
2022-10-17 18:29:00,,0833.1,5.02,0.00,27.5,26.5,00.0,36.2,29.4,13.6,0002.1,0006.03,0013.46,0005.45
2022-10-17 18:30:00,,0833.1,4.99,0.00,27.5,26.5,00.0,36.2,29.5,13.6,0001.7,0006.02,0013.38,0005.42
2022-10-17 18:31:00,,0833.1,5.01,0.00,27.6,26.5,00.0,36.3,29.5,13.4,0001.9,0005.98,0012.69,0005.38
2022-10-17 18:32:00,,0833.0,5.01,0.00,27.6,26.5,00.0,36.3,29.5,13.5,0002.1,0005.91,0012.61,0005.35
2022-10-17 18:33:00,,0833.0,5.00,0.00,27.6,26.5,00.0,36.3,29.5,13.4,0000.0,0005.87,0012.40,0005.31
2022-10-17 18:34:00,,0833.1,4.99,0.00,27.6,26.5,00.0,36.3,29.5,13.4,0000.0,0005.84,0012.32,0005.28
2022-10-17 18:35:00,,0833.1,5.01,0.00,27.6,26.6,00.0,36.3,29.5,13.3,0000.0,0005.84,0010.86,0005.27
2022-10-17 18:36:00,,0833.0,5.00,0.00,27.6,26.6,00.0,36.3,29.5,13.3,0000.0,0005.81,0010.92,0005.27
2022-10-17 18:37:00,,0833.1,5.00,0.00,27.6,26.6,00.0,36.4,29.5,13.3,0000.0,0005.80,0010.99,0005.26
2022-10-17 18:38:00,,0833.0,5.00,0.00,27.7,26.6,00.0,36.4,29.6,13.4,0000.0,0005.80,0010.36,0005.25
2022-10-17 18:39:00,,0833.0,5.00,0.00,27.7,26.6,00.0,36.4,29.6,13.3,0000.0,0005.76,0010.12,0005.24
2022-10-17 18:40:00,,0833.0,5.00,0.00,27.7,26.6,00.0,36.4,29.6,13.3,0000.0,0005.75,0010.35,0005.24
2022-10-17 18:41:00,,0832.9,5.00,0.00,27.7,26.7,00.0,36.4,29.6,13.3,0000.0,0005.73,0010.88,0005.23
2022-10-17 18:42:00,,0833.0,5.00,0.00,27.7,26.7,00.0,36.4,29.6,13.3,0000.0,0005.75,0011.05,0005.24
2022-10-17 18:43:00,,0832.9,5.00,0.00,27.7,26.7,00.0,36.5,29.7,13.2,0000.0,0005.74,0010.95,0005.24
2022-10-17 18:44:00,,0832.8,5.00,0.00,27.8,26.7,00.0,36.5,29.7,13.3,0000.0,0005.73,0010.85,0005.25
2022-10-17 18:45:00,,0832.8,5.00,0.00,27.8,26.7,00.0,36.5,29.7,13.2,0000.0,0005.76,0010.83,0005.25
2022-10-17 18:46:00,,0832.9,5.00,0.00,27.8,26.7,00.0,36.5,29.7,13.3,0000.0,0005.77,0010.74,0005.27
2022-10-17 18:47:00,,0832.9,5.00,0.00,27.8,26.7,00.0,36.5,29.7,13.4,0000.5,0005.78,0010.52,0005.29
2022-10-17 18:48:00,,0832.9,5.00,0.00,27.8,26.7,00.0,36.5,29.7,13.2,0002.3,0005.82,0010.40,0005.29
2022-10-17 18:49:00,,0832.8,5.00,0.00,27.8,26.8,00.0,36.5,29.7,13.1,0002.2,0005.80,0010.33,0005.28
2022-10-17 18:50:00,,0832.8,5.00,0.00,27.8,26.8,00.0,36.6,29.7,13.2,0001.7,0005.81,0010.36,0005.29
2022-10-17 18:51:00,,0832.7,5.00,0.00,27.8,26.8,00.0,36.6,29.7,13.2,0001.7,0005.85,0010.53,0005.30
2022-10-17 18:52:00,,0832.7,5.00,0.00,27.9,26.8,00.0,36.6,29.8,13.2,0002.0,0005.85,0010.45,0005.31
2022-10-17 18:53:00,,0832.8,4.99,0.00,27.9,26.9,00.0,36.6,29.8,13.2,0002.1,0005.84,0010.23,0005.30
2022-10-17 18:54:00,,0832.7,5.00,0.00,27.9,26.9,00.0,36.6,29.8,13.3,0001.7,0005.86,0010.24,0005.32
2022-10-17 18:55:00,,0832.8,4.99,0.00,27.9,26.9,00.0,36.7,29.8,13.3,0000.0,0005.90,0010.76,0005.33
2022-10-17 18:56:00,,0832.7,5.00,0.00,27.9,26.9,00.0,36.7,29.8,13.2,0000.0,0005.90,0010.99,0005.35
2022-10-17 18:57:00,,0832.7,5.00,0.00,28.0,26.9,00.0,36.7,29.9,13.2,0000.0,0005.91,0010.88,0005.34
2022-10-17 18:58:00,,0832.7,5.01,0.00,28.0,26.9,00.0,36.7,29.9,13.2,0000.0,0005.92,0011.69,0005.34
2022-10-17 18:59:00,,0832.7,5.01,0.00,28.0,26.9,00.0,36.7,29.9,13.2,0000.0,0005.91,0011.45,0005.34
